This demonstration page uses our WeatherBlox Daily Observations layout. Learn more.

Left ArrowRight Arrow

39.95238, -75.16362

Hourly Observations for January 31, 2022

Temp ( °F °C ) Dew Point ( °F °C ) Humidity (%) Winds ( mph kmh ) Pressure ( in mb ) Visibility ( mi km ) Precip ( " mm )
12:54 am 00:54 Cloudy 24 -4.4 12 -11.1 60 60 Calm 30.20 1023 10 16 0.00 0.00
1:54 am 01:54 Cloudy 23 -5 12 -11.1 63 63 Calm 30.21 1023 10 16 0.00 0.00
2:54 am 02:54 Mostly Cloudy 22 -5.6 13 -10.6 68 68 Calm 30.21 1023 10 16 0.00 0.00
3:54 am 03:54 Cloudy 22 -5.6 10 -12.2 60 60 ENE 5 7 30.22 1024 10 16 0.00 0.00
4:54 am 04:54 Mostly Cloudy 21 -6.1 11 -11.7 65 65 ENE 5 7 30.24 1024 10 16 0.00 0.00
5:54 am 05:54 Mostly Cloudy 21 -6.1 10 -12.2 62 62 ENE 5 7 30.25 1025 10 16 0.00 0.00
6:54 am 06:54 Mostly Cloudy 19 -7.2 8 -13.3 62 62 ENE 3 6 30.28 1025 10 16 0.00 0.00
7:54 am 07:54 Mostly Cloudy 21 -6.1 8 -13.3 57 57 NE 6 9 30.31 1026 10 16 0.00 0.00
8:54 am 08:54 Mostly Cloudy 24 -4.4 10 -12.2 55 55 NE 6 9 30.33 1027 10 16 0.00 0.00
9:54 am 09:54 Mostly Cloudy 26 -3.3 10 -12.2 51 51 NE 9 15 30.35 1028 10 16 0.00 0.00
10:54 am 10:54 Mostly Cloudy 29 -1.7 11 -11.7 47 47 NE 8 13 30.36 1028 10 16 0.00 0.00
11:54 am 11:54 Mostly Cloudy 31 -0.6 13 -10.6 47 47 NE 7 11 30.35 1028 10 16 0.00 0.00
12:54 pm 12:54 Mostly Cloudy 33 0.6 13 -10.6 43 43 ENE 7 11 30.33 1027 10 16 0.00 0.00
1:54 pm 13:54 Mostly Cloudy 34 1.1 15 -9.4 46 46 ENE 7 11 30.33 1027 10 16 0.00 0.00
2:54 pm 14:54 Mostly Cloudy 35 1.7 15 -9.4 44 44 ENE 6 9 30.32 1027 10 16 0.00 0.00
3:54 pm 15:54 Partly Cloudy 35 1.7 15 -9.4 44 44 undefined N/A 30.33 1027 10 16 0.00 0.00
4:05 pm 16:05 Partly Cloudy 35 1.7 15 -9.4 44 44 NNE 8 13 30.34 1028 10 16 0.00 0.00
4:54 pm 16:54 Partly Cloudy 33 0.6 16 -8.9 49 49 NE 9 15 30.35 1028 10 16 0.00 0.00
5:54 pm 17:54 Partly Cloudy 30 -1.1 15 -9.4 54 54 NE 8 13 30.35 1028 10 16 0.00 0.00
6:54 pm 18:54 Partly Cloudy 30 -1.1 14 -10 51 51 NE 9 15 30.38 1029 10 16 0.00 0.00
7:54 pm 19:54 Partly Cloudy 28 -2.2 14 -10 56 56 ENE 7 11 30.41 1030 10 16 0.00 0.00
8:54 pm 20:54 Mostly Clear 26 -3.3 14 -10 60 60 ENE 5 7 30.43 1030 10 16 0.00 0.00
9:54 pm 21:54 Clear 25 -3.9 13 -10.6 60 60 NE 6 9 30.44 1031 10 16 0.00 0.00
10:54 pm 22:54 Mostly Clear 25 -3.9 12 -11.1 58 58 NE 6 9 30.45 1031 10 16 0.00 0.00
11:54 pm 23:54 Clear 24 -4.4 11 -11.7 57 57 NE 6 9 30.45 1031 10 16 0.00 0.00

Powered by AerisWeather